RH
18 19 28 34 37 24 41 62 63 29 10 18 22 36 32 33 90 73 55 75 69 82 97 100 100 81 42 38 72 56 35 23 76 90 88 56 56 84 76 98 82 73 51 47 43 43 36
18 22 35 28 27 23 58 68 51 12 15 24 36 41 36 98 86 66 74 79 86 76 88 100 99 100 83 37 47 68 67 26 46 98 93 81 52 74 71 91 98 72 59 72 60 47 38
21 23 29 23 19 19 77 52 48 13 22 30 57 63 75 100 97 72 87 86 78 92 85 87 100 100 88 56 32 68 50 46 38 95 100 99 54 54 75 94 97 94 70 79 71 58 42
17 23 24 22 28 21 83 49 16 19 26 32 33 65 91 100 100 80 64 86 88 85 92 100 96 90 89 60 34 61 49 53 42 68 100 98 83 54 78 89 98 96 56 43 51 60 45
18 24 23 19 19 24 74 40 14 21 33 41 19 11 47 98 100 87 57 85 82 70 100 98 100 96 82 59 35 82 99 62 41 36 93 99 92 61 87 78 95 94 68 46 33 33 39
19 25 25 20 18 27 70 23 19 26 31 28 14 12 19 88 100 100 72 67 82 82 81 100 99 98 78 49 41 100 91 84 67 29 96 100 98 63 83 85 76 73 78 64 45 30 25
20 25 26 21 27 28 76 18 23 26 38 29 13 30 38 42 100 100 73 80 80 86 84 97 100 100 92 74 57 91 100 76 56 52 93 100 98 82 67 78 60 62 73 66 34 31 31
20 25 28 20 35 32 74 18 23 27 38 35 16 14 24 23 38 55 64 74 69 83 73 98 100 99 97 72 52 41 55 59 85 44 96 100 89 96 72 77 62 54 64 64 40 28 32
21 26 30 20 29 35 63 20 22 28 38 40 21 15 16 22 24 32 48 59 63 69 79 98 88 98 100 49 66 97 100 100 79 78 93 100 96 100 81 74 68 50 57 44 47 50 52
21 29 32 16 15 26 44 26 21 28 30 46 24 20 21 18 20 28 45 63 72 89 94 88 98 100 74 99 95 86 100 100 90 93 99 98 99 97 83 62 50 40 62 57 42 38 47
24 31 32 16 12 20 30 54 18 32 32 48 28 28 52 45 44 42 46 94 95 100 100 83 76 57 50 83 98 88 100 100 100 100 100 98 99 99 81 67 46 37 37 44 40 33 30
26 26 29 9 9 13 28 68 20 23 31 37 30 30 28 40 66 80 73 57 64 61 84 72 54 96 98 88 92 100 100 100 100 100 100 100 100 100 93 68 54 46 40 35 32 30 26
19 17 15 5 5 9 22 69 26 16 22 32 45 26 36 54 42 45 44 46 43 48 60 60 100 89 88 76 74 98 99 97 97 98 100 99 100 100 100 100 96 64 50 44 39 33 27
11 10 6 3 3 6 14 56 35 16 20 23 47 50 42 42 47 32 36 33 28 33 46 52 70 60 60 52 59 29 46 94 92 96 96 99 98 99 98 100 92 97 85 56 46 42 36
7 6 3 2 2 3 9 35 51 17 15 21 43 36 36 33 43 44 54 34 36 41 35 28 39 55 36 45 40 26 72 91 97 100 98 96 98 97 100 100 94 97 100 96 77 73 52
5 3 2 1 2 2 6 19 72 21 15 19 34 28 26 27 30 43 36 43 36 56 53 46 68 73 42 64 42 36 88 98 93 98 98 98 98 84 76 77 91 98 98 99 100 100 92
3 3 2 1 2 2 4 9 78 30 15 16 24 42 25 22 33 31 38 29 38 30 37 56 70 65 59 47 35 64 96 97 90 99 99 96 96 91 67 55 51 56 61 81 86 77 65
3 2 2 2 2 2 2 4 73 57 18 15 22 33 38 35 30 27 44 47 31 33 41 49 45 37 36 42 44 53 85 97 98 94 92 93 95 100 100 89 58 50 45 51 44 46 36
2 2 2 2 2 2 1 2 55 68 29 17 17 22 44 50 41 28 31 56 48 29 32 41 38 27 19 23 26 29 46 80 95 100 94 80 75 86 92 89 70 57 61 57 50 52 52
2 2 2 3 3 2 1 2 16 80 50 26 15 18 22 38 52 55 42 35 30 25 22 22 20 18 19 22 23 30 40 52 69 88 79 65 76 82 77 69 68 60 64 52 42 45 36
3 3 3 3 3 2 2 2 3 75 82 42 25 16 14 31 46 44 59 57 51 44 34 29 28 39 42 32 26 25 37 47 58 80 72 69 56 48 44 48 51 44 42 39 31 30 29
3 3 4 5 3 2 2 4 2 18 91 88 44 21 17 16 25 42 49 57 62 72 68 61 53 49 40 42 38 41 46 57 73 66 49 46 42 38 39 41 36 32 29 29 30 40 42
3 4 5 10 3 3 2 3 6 6 67 92 88 36 19 16 16 26 35 35 31 40 57 70 76 63 57 54 47 45 53 59 73 44 31 29 30 35 35 32 30 28 30 34 41 41 36
4 3 7 13 4 4 3 2 4 8 24 90 96 58 38 19 17 20 28 29 27 30 37 37 50 78 74 63 55 60 67 70 73 46 35 29 31 32 32 30 27 32 35 42 42 37 30
3 3 8 28 5 4 3 3 6 18 12 57 97 96 65 38 21 16 20 24 28 28 29 30 29 29 53 76 79 81 79 78 61 32 30 31 32 31 29 27 30 37 42 39 35 33 31
3 3 16 20 6 4 4 4 6 26 36 27 86 100 100 77 46 31 20 16 21 25 25 25 24 26 27 32 56 77 100 90 63 35 29 30 30 29 32 32 36 40 39 38 36 34 34
3 4 13 7 7 6 5 5 12 27 33 48 45 94 100 99 73 62 45 32 22 19 19 22 20 20 22 22 26 36 70 94 73 56 45 38 38 38 41 46 44 43 41 39 38 44 44
2 4 8 15 12 21 31 18 27 41 45 74 74 62 100 100 96 78 67 65 53 39 29 27 24 20 21 23 22 28 28 36 75 84 76 63 56 56 55 54 51 47 46 43 45 47 58
3 9 18 16 29 77 84 63 65 89 62 86 80 76 97 100 100 100 95 70 68 70 71 50 28 30 31 26 29 27 26 22 26 49 69 76 76 71 63 59 57 54 51 45 48 76 93
Wind_Speed
54 58 60 55 60 60 56 52 57 61 64 71 69 68 67 47 32 31 30 28 28 31 37 41 49 60 62 75 67 60 58 53 54 54 56 54 56 54 55 57 59 54 51 48 46 44 45
58 63 56 58 57 58 55 52 58 64 66 71 72 71 59 37 32 26 17 14 13 18 25 30 40 38 53 61 66 62 52 56 53 48 54 52 52 53 53 55 59 58 51 47 47 46 46
60 64 62 57 56 59 54 53 60 63 68 70 75 67 45 34 26 23 12 10 9 6 11 22 30 39 43 47 58 58 53 50 48 49 46 51 52 52 50 49 48 59 49 46 46 45 45
61 66 63 59 55 59 54 55 60 63 65 70 78 66 37 35 22 17 13 10 7 4 3 8 16 30 40 47 51 54 50 47 45 43 44 51 49 53 52 47 47 57 44 42 41 43 44
62 66 65 66 55 57 52 55 58 61 64 71 77 62 40 25 20 15 11 11 8 8 8 7 11 23 42 47 51 47 39 43 43 40 38 49 51 52 53 49 47 47 52 41 37 38 42
63 66 64 65 54 57 50 53 55 58 62 74 78 57 40 24 15 17 9 12 9 6 14 13 12 25 48 51 55 51 37 35 40 43 38 40 46 52 55 49 42 42 48 47 38 36 36
64 68 66 63 54 55 49 51 52 56 60 75 76 58 47 26 13 13 9 10 8 6 12 14 20 31 44 48 56 49 42 28 31 33 34 43 39 43 50 49 44 41 37 38 39 39 38
64 67 67 63 51 55 47 48 48 53 59 71 74 66 50 32 15 12 9 11 7 4 14 14 29 51 50 51 51 42 35 35 32 35 30 41 35 40 50 53 47 43 41 42 41 35 35
65 69 66 62 48 52 45 45 45 47 54 64 68 65 54 38 26 17 10 6 5 14 20 32 50 54 42 57 49 38 38 30 36 33 30 31 35 35 46 50 50 46 44 40 40 41 39
66 67 67 63 47 48 43 41 41 41 47 56 59 61 56 48 39 34 31 35 42 49 42 46 49 44 53 54 39 35 27 25 26 30 29 30 30 35 42 46 46 47 46 45 41 38 39
67 67 64 60 47 44 42 36 38 38 40 47 51 50 51 54 53 50 47 50 46 41 38 42 47 52 53 45 37 34 21 26 35 26 22 29 28 33 40 40 43 43 44 45 43 42 40
66 66 62 55 44 41 41 32 35 32 34 39 45 40 38 39 41 38 36 34 37 43 46 48 52 49 40 39 36 35 20 32 30 29 23 24 28 26 27 34 38 38 39 38 38 40 40
63 60 58 50 42 39 38 28 30 26 29 33 33 32 39 42 39 36 33 34 40 49 42 44 52 40 34 32 33 29 17 24 18 18 20 28 32 30 30 27 27 40 40 38 40 41 40
62 57 53 46 39 36 34 25 25 25 22 27 26 21 28 35 35 29 26 31 36 38 40 42 39 27 28 27 18 19 19 12 17 18 21 24 26 26 29 28 24 23 31 40 41 40 37
61 56 49 42 36 34 31 23 19 22 20 21 25 14 19 25 29 24 28 24 25 26 31 37 33 23 21 18 21 19 15 13 14 18 22 22 28 30 27 27 26 26 22 26 32 32 31
59 55 51 43 36 32 29 22 16 18 18 15 20 17 13 17 20 19 13 16 17 22 25 26 23 13 14 19 21 20 13 11 14 18 21 23 22 25 24 23 22 24 25 23 24 24 24
58 55 50 41 35 32 27 22 13 13 15 13 13 16 10 10 17 17 16 10 14 19 20 21 16 14 14 14 21 19 8 7 14 20 20 22 22 21 22 22 22 23 23 26 25 23 22
58 55 49 43 35 31 28 22 11 11 11 12 8 9 11 11 8 15 14 9 12 15 16 16 11 10 10 11 14 16 12 9 11 18 16 16 23 23 17 19 17 20 22 23 22 19 17
56 55 51 43 32 30 29 24 11 8 9 9 7 4 5 8 7 8 12 16 12 13 13 14 12 9 8 9 12 17 16 13 13 17 18 16 15 17 18 20 21 20 19 18 19 20 20
57 55 50 42 31 28 27 27 15 9 10 10 7 5 0 1 4 6 10 13 13 11 11 10 10 9 8 7 8 13 17 16 13 19 19 17 18 18 18 18 20 20 22 21 19 19 19
57 56 48 40 33 25 25 27 18 13 11 11 10 6 7 4 1 1 2 4 7 8 8 8 7 8 8 9 10 13 14 15 13 16 17 15 14 16 18 18 18 17 17 17 18 20 18
57 57 49 41 33 29 26 26 23 15 15 13 14 10 10 11 8 5 2 3 3 5 7 8 10 10 12 11 11 13 14 14 15 16 16 17 16 17 17 18 18 17 16 16 16 14 16
56 57 53 44 28 27 24 26 25 19 17 19 17 16 12 11 16 13 10 7 5 5 5 6 8 11 12 12 12 14 15 16 18 16 15 16 17 17 17 18 18 17 16 15 15 15 16
55 57 56 49 25 29 26 24 28 24 20 20 20 21 17 15 16 18 17 14 11 9 6 7 7 9 11 13 14 15 15 16 17 18 17 17 17 17 17 18 18 16 16 16 15 15 15
53 57 56 46 26 27 24 24 29 29 22 24 24 26 23 19 19 19 20 20 20 18 14 11 9 8 10 12 15 16 18 19 18 18 19 18 17 17 19 18 16 16 15 15 15 15 16
52 56 53 47 31 25 26 26 30 29 22 26 26 26 29 26 23 21 20 22 23 22 20 21 19 15 13 11 12 14 16 20 20 17 19 20 20 20 18 18 18 16 16 16 16 16 16
53 57 50 39 30 26 27 30 33 28 22 24 27 28 27 31 28 25 22 22 23 24 24 26 25 25 22 17 16 14 16 20 19 19 20 20 20 20 20 19 18 17 16 17 18 16 18
48 53 41 30 29 31 35 34 32 28 22 21 25 31 30 29 33 30 28 26 25 26 26 25 26 22 24 25 23 18 17 18 22 23 23 22 22 21 21 19 19 18 18 19 18 19 19
50 44 32 28 30 31 31 27 21 23 24 25 23 28 29 30 30 31 33 33 32 33 30 30 31 29 29 26 24 23 20 18 18 22 24 25 26 24 23 21 20 20 20 21 20 19 19
Wind_Direction
343 347 351 346 344 339 339 339 334 331 332 332 336 336 336 326 317 311 303 291 273 255 246 237 234 236 229 221 220 214 214 213 217 212 210 211 213 214 221 214 211 218 217 220 219 217 213
347 350 352 349 345 341 341 341 339 335 337 341 342 338 338 325 326 330 327 314 297 255 238 233 226 226 227 221 213 211 209 212 214 207 211 204 208 213 221 221 213 213 216 221 221 219 215
347 353 353 350 344 344 344 345 342 342 346 345 348 344 337 326 325 336 323 6 335 298 248 235 227 219 216 212 209 206 207 206 209 211 206 199 206 209 216 221 221 209 220 222 223 223 219
347 353 355 351 344 344 346 347 345 349 351 347 352 347 333 327 325 331 311 325 351 281 256 217 224 217 192 197 197 200 203 202 203 208 210 196 201 205 208 214 217 212 214 217 221 224 223
348 353 356 354 346 344 347 349 349 353 352 350 356 352 342 327 318 327 319 304 300 319 226 203 198 201 187 184 182 187 187 199 200 203 207 197 196 201 206 209 215 218 209 212 214 220 224
344 350 355 354 347 344 349 351 355 358 355 357 359 360 357 336 317 318 330 317 317 306 225 188 198 179 170 172 172 166 171 176 195 200 205 194 197 201 202 206 215 220 216 214 213 218 221
342 347 352 355 348 346 351 353 360 0 1 5 2 5 6 1 323 315 326 320 322 304 204 198 159 161 150 159 168 187 184 186 192 195 205 196 201 201 202 202 207 213 219 212 222 220 223
338 347 349 353 349 347 354 356 5 4 7 9 7 11 10 9 352 320 309 314 320 324 168 167 148 142 145 152 161 172 186 198 198 198 203 196 193 200 199 202 203 210 214 216 220 218 221
336 344 348 354 351 348 356 357 7 10 9 14 14 18 17 18 22 21 10 2 60 110 130 132 137 139 147 149 160 161 164 185 183 192 196 194 196 197 197 201 203 209 213 217 222 228 230
338 343 348 353 352 347 355 356 8 13 6 17 21 28 36 37 47 57 74 88 98 99 108 126 136 140 147 151 146 168 166 183 179 180 188 192 193 194 196 199 205 209 214 219 223 226 227
336 341 347 352 351 347 352 358 5 19 13 19 26 31 49 53 61 66 80 88 99 101 97 133 132 135 147 153 160 156 172 171 188 170 183 199 192 195 198 201 206 208 213 219 223 227 229
336 339 343 351 351 347 351 356 1 18 17 14 30 35 42 41 48 65 75 90 106 114 114 132 134 134 149 162 162 161 148 161 149 163 167 183 187 176 195 207 210 211 214 217 223 227 230
336 339 345 352 352 346 348 351 359 10 21 20 20 37 39 36 36 56 81 98 113 113 120 138 138 128 138 153 167 179 185 162 171 177 173 169 179 175 178 184 197 212 215 216 220 226 228
335 341 346 352 351 346 347 352 353 1 15 17 20 36 36 38 42 55 75 107 109 114 127 144 153 147 138 148 154 165 168 178 170 165 179 174 167 171 187 194 201 198 211 219 222 225 227
335 340 347 353 349 345 345 352 350 358 12 20 24 52 44 45 52 61 73 87 102 114 127 137 138 148 170 172 178 177 170 176 168 166 160 176 175 174 174 187 200 195 200 212 220 225 226
335 339 345 353 352 346 343 349 348 351 4 21 26 32 57 62 64 66 71 70 104 123 124 142 154 141 136 165 175 173 175 181 176 161 176 176 186 194 204 205 209 207 209 212 215 217 217
332 337 343 353 353 347 341 344 339 344 355 14 21 29 28 49 81 81 84 98 115 142 145 144 142 144 158 156 172 180 185 175 191 184 178 193 199 197 200 205 206 213 218 222 221 222 223
330 333 340 348 354 344 337 340 326 326 346 3 20 30 47 49 92 98 102 117 123 130 145 160 158 165 167 170 171 189 193 192 191 199 205 207 210 208 213 203 206 208 212 219 222 219 217
324 328 336 345 353 345 334 334 309 295 316 332 339 25 33 38 49 106 114 134 145 130 154 169 177 171 172 169 184 191 196 201 199 197 203 206 205 214 215 216 218 218 224 228 229 223 215
321 328 335 344 350 346 334 328 310 286 283 306 320 296 93 61 44 67 111 122 142 150 150 157 170 182 188 203 206 206 207 208 206 203 195 203 208 216 213 215 219 227 228 231 227 214 205
320 324 331 340 343 342 325 320 318 279 262 275 293 279 246 216 229 48 120 150 141 142 154 174 193 201 205 206 206 204 208 217 218 212 200 200 202 210 214 213 214 214 212 204 197 200 202
316 319 329 337 342 346 328 308 311 275 260 263 266 270 249 222 204 191 184 175 183 188 199 205 213 216 216 217 214 209 212 206 201 203 211 205 209 210 209 205 205 207 205 202 204 205 216
315 316 320 330 335 342 334 312 305 297 255 252 250 254 257 249 217 210 216 227 231 226 219 218 226 222 221 227 216 209 210 213 212 213 215 212 208 206 201 203 207 206 208 209 213 221 231
311 313 316 324 328 333 333 315 305 294 265 251 244 242 247 244 236 222 215 219 220 230 231 242 242 229 228 227 220 215 215 213 214 218 218 215 209 208 207 213 213 209 214 218 229 235 233
310 310 312 316 314 326 315 315 304 300 275 252 245 239 243 240 243 241 236 229 225 225 234 239 247 256 239 230 229 233 227 221 222 223 217 219 219 219 218 219 215 218 226 233 236 237 237
309 308 306 311 316 316 315 300 296 291 284 253 244 240 239 240 238 240 244 244 239 237 235 233 236 245 256 249 244 242 230 221 225 221 218 218 221 221 221 223 227 228 236 242 243 243 242
310 304 306 316 313 302 301 294 291 293 277 257 249 243 236 235 241 242 241 246 246 246 244 241 244 241 241 252 255 251 240 232 231 227 223 220 219 221 223 225 230 233 240 244 247 245 240
299 299 311 312 305 298 300 300 304 299 273 265 248 236 237 234 238 241 243 247 248 248 247 243 242 241 241 241 242 242 247 246 241 236 233 230 227 225 227 231 239 243 244 248 246 239 230
295 303 310 309 303 314 319 314 309 298 274 263 256 237 237 232 240 245 244 245 246 249 250 248 248 240 240 240 239 239 239 238 244 242 242 241 238 236 238 240 242 245 246 249 242 233 226